Weather History for Palm Springs, CA

Change the Weather History Date:

Friday, March 21, 2014

  Actual Average Record
Temperature  
Mean Temperature 68 °F 67 °F  
Max Temperature 83 °F 80 °F 102 °F (2004)
Min Temperature 53 °F 53 °F 33 °F (1955)
Degree Days  
Heating Degree Days 0 2  
Month to date heating degree days 12 58  
Since 1 July heating degree days 423 836  
Cooling Degree Days 3 3  
Month to date cooling degree days 116 52  
Year to date cooling degree days 224 79  
Growing Degree Days 18 (Base 50)    
Moisture  
Dew Point 34 °F    
Average Humidity 28    
Maximum Humidity 43    
Minimum Humidity 13    
Precipitation  
Precipitation 0.00 in 0.01 in 0.21 in (1992)
Month to date precipitation 0.28 0.55  
Year to date precipitation 0.70 2.58  
Since 1 July precipitation 1.96 5.38  
Snow  
Snow 0.00 in - - ()
Month to date snowfall 0.0  
Year to date snowfall 0.0  
Since 1 July snowfall 0.0  
Snow Depth 0.00 in    
Sea Level Pressure  
Sea Level Pressure 29.86 in    
Wind  
Wind Speed 4 mph (NW)    
Max Wind Speed 21 mph    
Max Gust Speed 26 mph    
Visibility 10 miles    
Events      
T = Trace of Precipitation, MM = Missing Value Source: NWS Daily Summary

Daily Weather History Graph

Daily Weather History Graph

Search for Another Location

Airport:

Trip Planner

Search our weather history database for the weather conditions in past years. The results will help you decide how hot, cold, wet, or windy it might be!

Date:

Astronomy

Mar. 21, 2014 Rise Set
Actual Time 6:48 AM PDT 6:58 PM PDT
Civil Twilight 6:23 AM PDT 7:23 PM PDT
Nautical Twilight 5:54 AM PDT 7:52 PM PDT
Astronomical Twilight 5:24 AM PDT 8:21 PM PDT
Moon No Moon Rise 9:56 AM PDT (3/21)
Length of Visible Light 13h 00m
Length of Day
12h 10m
Waning Gibbous, 74% of the Moon is Illuminated
Mar 21
Waning Gibbous
Mar 23
Last Quarter
Mar 30
New
Apr 7
First Quarter
Apr 15
Full

Hourly Weather History & Observations

Time (PDT) Temp. Dew Point Humidity Pressure Visibility Wind Dir Wind Speed Gust Speed Precip Events Conditions
12:53 AM 64.9 °F 25.0 °F 22% 29.88 in 10.0 mi Calm Calm - N/A   Clear
1:53 AM 63.0 °F 28.0 °F 27% 29.87 in 10.0 mi Calm Calm - N/A   Clear
2:53 AM 62.1 °F 28.9 °F 29% 29.86 in 10.0 mi Calm Calm - N/A   Clear
3:53 AM 60.1 °F 32.0 °F 35% 29.85 in 10.0 mi NNW 4.6 mph - N/A   Clear
4:53 AM 57.9 °F 30.9 °F 36% 29.84 in 10.0 mi Calm Calm - N/A   Clear
5:53 AM 57.9 °F 33.1 °F 39% 29.85 in 10.0 mi Calm Calm - N/A   Clear
6:53 AM 55.0 °F 34.0 °F 45% 29.87 in 10.0 mi Calm Calm - N/A   Clear
7:53 AM 61.0 °F 28.9 °F 30% 29.88 in 10.0 mi Calm Calm - N/A   Clear
8:53 AM 64.9 °F 30.9 °F 28% 29.90 in 10.0 mi Calm Calm - N/A   Clear
9:53 AM 71.1 °F 33.1 °F 25% 29.91 in 10.0 mi Calm Calm - N/A   Clear
10:53 AM 75.0 °F 34.0 °F 22% 29.91 in 10.0 mi Variable 3.5 mph - N/A   Clear
11:53 AM 79.0 °F 28.0 °F 15% 29.90 in 10.0 mi ENE 4.6 mph - N/A   Clear
12:53 PM 79.0 °F 24.1 °F 13% 29.88 in 10.0 mi Variable 3.5 mph - N/A   Clear
1:53 PM 81.0 °F 37.0 °F 21% 29.86 in 10.0 mi NW 16.1 mph 25.3 mph N/A   Scattered Clouds
2:53 PM 81.0 °F 36.0 °F 20% 29.84 in 10.0 mi NW 13.8 mph 24.2 mph N/A   Partly Cloudy
3:53 PM 82.0 °F 35.1 °F 18% 29.83 in 10.0 mi NNW 8.1 mph 23.0 mph N/A   Clear
4:53 PM 81.0 °F 35.1 °F 19% 29.81 in 10.0 mi NNW 15.0 mph 20.7 mph N/A   Clear
5:53 PM 80.1 °F 39.0 °F 23% 29.81 in 10.0 mi NW 12.7 mph 20.7 mph N/A   Clear
6:53 PM 77.0 °F 37.9 °F 24% 29.81 in 10.0 mi NW 11.5 mph - N/A   Clear
7:53 PM 75.0 °F 37.0 °F 25% 29.82 in 10.0 mi NW 13.8 mph 24.2 mph N/A   Clear
8:53 PM 73.0 °F 39.9 °F 30% 29.83 in 10.0 mi NW 17.3 mph - N/A   Clear
9:53 PM 69.1 °F 44.1 °F 40% 29.84 in 10.0 mi NW 20.7 mph 25.3 mph N/A   Clear
10:53 PM 68.0 °F 43.0 °F 40% 29.85 in 10.0 mi NW 10.4 mph - N/A   Clear
11:53 PM 66.0 °F 43.0 °F 43% 29.86 in 10.0 mi NW 6.9 mph - N/A   Clear